Station 45006 (LLNR 16540) - WEST SUPERIOR - 30NM NE of Outer Island, WI Image indicating link to RSS feed of recent meteorological observations for station 45006


Conditions at 45006 as of
(4:50 pm EDT)
2050 GMT on 07/19/2024:
     

Click on the graph icon in the table below to see a time series plot of the last five days of that observation.

5-day plot - Wind Direction Wind Direction (WDIR):SSW ( 210 deg true )
5-day plot - Wind Speed Wind Speed (WSPD): 7.8 kts
5-day plot - Wind Gust Wind Gust (GST): 9.7 kts
5-day plot - Atmospheric Pressure Atmospheric Pressure (PRES):30.04 in
5-day plot - Air Temperature Air Temperature (ATMP): 65.3 °F
5-day plot - Water Temperature Water Temperature (WTMP): 61.0 °F
5-day plot - Dew Point Dew Point (DEWP): 59.5 °F
5-day plot - Wind Speed at 10 Meters Wind Speed at 10 meters (WSPD10M): 9.7 kts
5-day plot - Wind Speed at 20 Meters Wind Speed at 20 meters (WSPD20M): 9.7 kts
5-day plot -  Wind Speed, Wind Gust and Atmospheric Pressure Combined plot of Wind Speed, Gust, and Air Pressure
Supplemental Measurements
Highest 1-minute Wind Speed
Time (EDT)5-day plot - 1-Minute Wind Speed WSPD 5-day plot - 1-Minute Wind Direction WDIR
4:43 pm 9.7 kts-
Previous observations
TIME
(EDT)
5-day plot - Wind Direction
WDIR
 
5-day plot - Wind Speed
WSPD
kts
5-day plot - Wind Gust
GST
kts
5-day plot - Wave Height
WVHT
ft
5-day plot - Dominant Wave Period
DPD
sec
5-day plot - Average Wave Period
APD
sec
5-day plot - Mean Wave Direction
MWD
 
5-day plot - Atmospheric Pressure
PRES
in
5-day plot - Pressure Tendency
PTDY
in
5-day plot - Air Temperature
ATMP
°F
5-day plot - Water Temperature
WTMP
°F
5-day plot - Dew Point
DEWP
°F
5-day plot - Salinity
SAL
psu
5-day plot - Visibility
VIS
nmi
5-day plot - Tide (above MLLW)
TIDE
ft
2024-07-19 04:40 pmSSW 7.8 9.7----30.05- 65.1 61.0 59.9---
2024-07-19 04:30 pmSSW 9.7 9.7----30.05- 65.1 61.0 59.7---
2024-07-19 04:20 pm SW 9.7 11.7----30.05- 65.1 60.8 59.5---
2024-07-19 04:10 pm SW 9.7 11.7----30.06- 65.1 60.8 59.5---
2024-07-19 04:00 pm SW 9.7 13.6----30.06-0.02 65.1 60.8 59.5---
2024-07-19 03:50 pm SW 9.7 11.7----30.06- 64.8 60.8 59.9---
2024-07-19 03:40 pmSSW 9.7 11.7----30.06- 64.4 60.8 60.3---
2024-07-19 03:30 pmSSW 9.7 11.7----30.06- 63.9 60.6 60.8---
2024-07-19 03:20 pmSSW 9.7 11.7----30.06- 63.9 60.6 61.0---
2024-07-19 03:10 pm SW 9.7 9.7----30.06- 64.2 60.4 60.3---
2024-07-19 03:00 pm SW 9.7 9.7----30.06-0.02 64.2 60.4 59.7---
2024-07-19 02:50 pm SW 9.7 11.7----30.06- 64.2 60.4 59.9---
2024-07-19 02:40 pm SW 9.7 11.7----30.06- 63.9 60.4 60.1---
2024-07-19 02:30 pm SW 9.7 9.7----30.06- 63.5 60.4 60.1---
2024-07-19 02:20 pm SW 9.7 9.7----30.06- 63.3 60.4 60.3---
2024-07-19 02:10 pm SW 7.8 9.7----30.07- 63.3 60.3 60.3---
2024-07-19 02:00 pm SW 7.8 9.7----30.07-0.03 63.1 60.3 60.1---
2024-07-19 01:50 pm SW 7.8 9.7----30.07- 63.1 60.3 60.1---
2024-07-19 01:40 pm SW 9.7 9.7----30.07- 63.1 60.3 59.9---
2024-07-19 01:30 pm SW 7.8 9.7----30.07- 63.1 60.1 59.7---
2024-07-19 01:20 pm SW 7.8 9.7----30.07- 63.1 60.1 59.7---
2024-07-19 01:10 pm SW 7.8 9.7----30.07- 63.0 60.1 59.9---
2024-07-19 01:00 pm SW 7.8 9.7----30.08-0.04 63.0 60.1 59.9---
2024-07-19 12:50 pm SW 7.8 9.7----30.08- 62.8 59.9 59.7---
2024-07-19 12:40 pm SW 7.8 9.7----30.08- 63.1 59.9 59.7---
2024-07-19 12:30 pm SW 7.8 9.7----30.08- 63.3 59.7 59.5---
2024-07-19 12:20 pm SW 7.8 9.7----30.08- 63.9 59.7 59.5---
2024-07-19 12:10 pm SW 7.8 9.7----30.08- 64.2 59.7 59.7---
2024-07-19 12:00 pm SW 7.8 7.8----30.08-0.03 64.4 59.7 59.7---
2024-07-19 11:50 am SW 5.8 7.8----30.08- 64.4 59.7 59.7---
2024-07-19 11:40 am SW 5.8 7.8----30.09- 64.9 59.5 59.7---
2024-07-19 11:30 am SW 5.8 7.8----30.09- 64.0 59.7 59.9---
2024-07-19 11:20 amSSW 5.8 7.8----30.09- 63.5 59.5 60.1---
2024-07-19 11:10 am SW 5.8 7.8----30.10- 62.8 59.5 60.1---
2024-07-19 11:00 amSSW 3.9 5.8----30.10+0.00 62.8 59.5 59.9---
2024-07-19 10:50 amSSW 3.9 5.8----30.10- 63.7 59.4 59.9---
2024-07-19 10:40 amSSW 3.9 5.8----30.11- 64.0 59.5 59.9---
2024-07-19 10:30 amSSW 3.9 5.8----30.11- 62.8 59.5 59.9---
2024-07-19 10:20 am SW 5.8 5.8----30.11- 63.7 59.4 59.9---
2024-07-19 10:10 am SW 5.8 5.8----30.11- 62.2 59.4 59.9---
2024-07-19 10:00 am SW 5.8 5.8----30.11+0.02 61.2 59.4 59.7---
2024-07-19 09:50 am SW 3.9 5.8----30.11- 61.0 59.4 59.7---
2024-07-19 09:40 am SW 5.8 7.8----30.11- 61.7 59.4 59.5---
2024-07-19 09:30 am SW 5.8 7.8----30.11- 61.2 59.4 59.5---
2024-07-19 09:20 am SW 5.8 5.8----30.11- 61.0 59.4 59.7---
2024-07-19 09:10 am SW 5.8 7.8----30.11- 61.7 59.2 59.5---
2024-07-19 09:00 am SW 7.8 7.8----30.11+0.04 61.5 59.4 59.7---
2024-07-19 08:50 am SW 5.8 7.8----30.11- 61.2 59.4 59.5---
2024-07-19 08:40 am SW 5.8 7.8----30.11- 61.3 59.2 59.5---
2024-07-19 08:30 am SW 5.8 7.8----30.11- 61.5 59.2 59.5---
2024-07-19 08:20 amWSW 7.8 7.8----30.10- 61.5 59.2 59.5---
2024-07-19 08:10 amWSW 5.8 7.8----30.10- 61.3 59.2 59.7---
2024-07-19 08:00 am SW 5.8 7.8----30.10+0.03 61.2 59.2 59.9---
2024-07-19 07:50 amWSW 5.8 7.8----30.10- 61.2 59.2 59.9---
2024-07-19 07:40 amWSW 5.8 7.8----30.10- 61.2 59.2 60.1---
2024-07-19 07:30 amWSW 5.8 5.8----30.09- 61.3 59.2 60.3---
2024-07-19 07:20 amWSW 5.8 7.8----30.09- 61.5 59.2 60.3---
2024-07-19 07:10 amWSW 7.8 7.8----30.09- 61.7 59.2 60.1---
2024-07-19 07:00 amWSW 7.8 7.8----30.09+0.01 61.7 59.2 60.1---
2024-07-19 06:50 amWSW 7.8 9.7----30.09- 61.7 59.2 60.1---
2024-07-19 06:40 amWSW 7.8 9.7----30.09- 61.7 59.2 60.3---
2024-07-19 06:30 amWSW 7.8 9.7----30.08- 61.7 59.4 60.3---
2024-07-19 06:20 amWSW 7.8 7.8----30.08- 61.7- 60.1---
2024-07-19 06:10 amWSW 7.8 7.8----30.08- 61.7 59.2 60.1---
2024-07-19 06:00 amWSW 7.8 9.7----30.08-0.01 61.9 59.2 60.1---
2024-07-19 05:50 amWSW 7.8 7.8----30.08- 61.7 59.2 60.1---
2024-07-19 05:40 am SW 5.8 7.8----30.08- 61.3 59.2 59.7---
2024-07-19 05:30 amWSW 7.8 9.7----30.08- 62.1 59.4 59.9---
2024-07-19 05:20 amWSW 7.8 9.7----30.08- 62.2 59.4 59.7---
2024-07-19 05:10 amWSW 7.8 9.7----30.08- 62.2 59.4 59.5---
2024-07-19 05:00 amWSW 7.8 9.7----30.08-0.02 62.4 59.4 59.4---
2024-07-19 04:50 amWSW 7.8 7.8----30.08- 62.2 59.4 59.4---
2024-07-19 04:40 amWSW 5.8 7.8----30.08- 62.1 59.4 59.5---
2024-07-19 04:30 amWSW 5.8 5.8----30.07- 61.5 59.5 59.9---
2024-07-19 04:20 am SW 5.8 5.8----30.08- 61.0 59.5 59.9---
2024-07-19 04:10 am SW 5.8 5.8----30.08- 61.5 59.5 59.7---
2024-07-19 04:00 am SW 5.8 5.8----30.08-0.01 61.5 59.5 59.7---
2024-07-19 03:50 am SW 5.8 5.8----30.09- 61.5 59.5 59.7---
2024-07-19 03:40 am SW 5.8 5.8----30.09- 61.5 59.5 59.7---
2024-07-19 03:30 am SW 5.8 5.8----30.09- 61.5 59.5 59.5---
2024-07-19 03:20 amWSW 5.8 5.8----30.09- 61.7 59.5 59.7---
2024-07-19 03:10 amWSW 5.8 5.8----30.09- 61.5 59.7 59.7---
2024-07-19 03:00 amWSW 5.8 5.8----30.09+0.00 61.9 59.5 59.7---
2024-07-19 02:50 am W 5.8 5.8----30.09- 61.9 59.5 59.5---
2024-07-19 02:40 am W 5.8 5.8----30.09- 62.1 59.5 59.4---
2024-07-19 02:30 am W 5.8 7.8----30.09- 63.0 59.7 59.0---
2024-07-19 02:20 am W 7.8 9.7----30.09- 62.6 59.5 58.6---
2024-07-19 02:10 am W 7.8 9.7----30.09- 62.6 59.7 58.6---
2024-07-19 02:00 amWNW 3.9 7.8----30.10+0.00 61.3 59.7 58.5---
2024-07-19 01:50 amWSW 5.8 7.8----30.09- 62.2 59.7 58.5---
2024-07-19 01:40 am SW 7.8 7.8----30.09- 62.2- 58.3---
2024-07-19 01:30 am SW 7.8 9.7----30.09- 62.6 59.7 57.9---
2024-07-19 01:20 am SW 7.8 7.8----30.09- 62.8 59.7 57.7---
2024-07-19 01:10 am SW 7.8 9.7----30.09- 63.0 59.5 57.4---
2024-07-19 01:00 amSSW 7.8 9.7----30.09+0.00 63.3 59.5 57.2---
2024-07-19 12:50 amSSW 7.8 9.7----30.09- 63.3 59.5 56.8---
2024-07-19 12:40 amSSW 7.8 9.7----30.09- 63.3 59.7 56.8---
2024-07-19 12:30 amSSW 7.8 9.7----30.09- 63.1 59.7 56.8---
2024-07-19 12:20 amSSW 7.8 9.7----30.09- 63.1 59.7 56.7---
2024-07-19 12:10 amSSW 7.8 9.7----30.09- 63.1 59.7 56.8---
2024-07-19 12:00 amSSW 7.8 7.8----30.09-0.01 63.1 59.7 56.8---
2024-07-18 11:50 pmSSW 7.8 7.8----30.09- 63.3 59.7 56.8---
2024-07-18 11:40 pmSSW 7.8 9.7----30.09- 63.3 59.7 56.5---
2024-07-18 11:30 pmSSW 7.8 7.8----30.09- 63.1 59.7 56.7---
2024-07-18 11:20 pmSSW 7.8 7.8----30.09- 63.1 59.7 56.7---
2024-07-18 11:10 pmSSW 5.8 7.8----30.10- 63.3 59.7 56.3---
2024-07-18 11:00 pmSSW 5.8 7.8----30.10-0.02 63.3 59.7 56.1---
2024-07-18 10:50 pmSSW 5.8 7.8----30.10- 63.1 59.7 56.3---
2024-07-18 10:40 pmSSW 7.8 7.8----30.10- 63.1 59.7 56.1---
2024-07-18 10:30 pmSSW 7.8 7.8----30.10- 63.1 59.7 56.1---
2024-07-18 10:20 pmSSW 7.8 7.8----30.09- 63.1 59.7 55.9---
2024-07-18 10:10 pmSSW 7.8 7.8----30.09- 63.3 59.7 55.8---
2024-07-18 10:00 pmSSW 7.8 7.8----30.09-0.04 63.0 59.7 56.1---
2024-07-18 09:50 pmSSW 5.8 7.8----30.10- 62.8 59.7 56.5---
2024-07-18 09:40 pmSSW 7.8 7.8----30.10- 62.6 59.9 56.7---
2024-07-18 09:30 pmSSW 7.8 7.8----30.10- 62.8 59.9 56.3---
2024-07-18 09:20 pmSSW 7.8 9.7----30.10- 63.0 59.7 55.9---
2024-07-18 09:10 pmSSW 7.8 9.7----30.10- 63.3 59.7 55.6---
2024-07-18 09:00 pmSSW 9.7 9.7----30.11-0.04 63.5 59.7 55.4---
2024-07-18 08:50 pmSSW 7.8 9.7----30.11- 63.3 59.9 55.6---
2024-07-18 08:40 pmSSW 9.7 9.7----30.11- 63.5 59.9 55.4---
2024-07-18 08:30 pmSSW 9.7 11.7----30.11- 63.5 59.9 55.4---
2024-07-18 08:20 pmSSW 9.7 11.7----30.11- 63.3 59.7 55.2---
2024-07-18 08:10 pmSSW 9.7 9.7----30.12- 63.3 59.7 55.4---
2024-07-18 08:00 pmSSW 9.7 9.7----30.12-0.03 63.1 59.7 55.8---
2024-07-18 07:50 pmSSW 9.7 11.7----30.12- 63.5 59.7 55.6---
2024-07-18 07:40 pmSSW 9.7 11.7----30.12- 63.5 59.7 55.4---
2024-07-18 07:30 pmSSW 9.7 11.7----30.13- 63.7 59.7 55.4---
2024-07-18 07:20 pmSSW 9.7 11.7----30.13- 63.7 59.5 55.4---
2024-07-18 07:10 pmSSW 9.7 11.7----30.13- 63.9 59.5 55.4---
2024-07-18 07:00 pmSSW 9.7 11.7----30.13-0.04 63.7 59.5 55.4---
2024-07-18 06:50 pmSSW 9.7 11.7----30.13- 63.1 59.5 56.3---
2024-07-18 06:40 pmSSW 9.7 11.7----30.13- 63.1 59.5 56.7---
2024-07-18 06:30 pmSSW 9.7 11.7----30.14- 63.1 59.5 56.8---
2024-07-18 06:20 pmSSW 9.7 11.7----30.14- 63.0 59.5 57.0---
2024-07-18 06:10 pmSSW 7.8 9.7----30.14- 62.6 59.5 57.4---
2024-07-18 06:00 pm SW 9.7 9.7----30.14-0.03 62.8 59.5 57.4---
2024-07-18 05:50 pm SW 9.7 11.7----30.14- 62.6 59.4 57.9---
2024-07-18 05:40 pm SW 9.7 11.7----30.14- 62.4 59.4 58.5---
2024-07-18 05:30 pm SW 9.7 9.7----30.14- 62.6 59.4 58.1---
2024-07-18 05:20 pm SW 9.7 9.7----30.15- 62.6 59.4 58.3---
2024-07-18 05:10 pm SW 9.7 9.7----30.15- 62.4 59.4 58.8---
2024-07-18 05:00 pm SW 9.7 11.7----30.15-0.02 62.6 59.4 58.8---
2024-07-18 04:50 pm SW 9.7 11.7----30.15- 62.4 59.4 59.0---